GW5867 Weather Reports


Display with metric or nautical units.
time (UTC)temp
F
wind
direction
speed
MPH
gust
MPH
rain 1hr
in
rain 24hr
in
rain mn
in
humidity
%
barometer
mb
20260504151005 59 294 8.0 25.0 0.00 0.00 0.00 40 1010.6
20260504150509 59 234 10.0 26.0 0.00 0.00 0.00 39 1010.5
20260504141006 57 244 5.0 20.0 0.00 0.00 0.00 42 1011.0
20260504140507 57 185 9.0 20.0 0.00 0.00 0.00 41 1011.0
20260504130508 53 213 4.0 17.0 0.00 0.00 0.00 49 1011.4
20260504110504 45 208 5.0 10.0 0.00 0.00 0.00 58 1011.4
20260504100508 44 192 4.0 10.0 0.00 0.00 0.00 58 1011.0
20260504082006 41 173 3.0 6.0 0.00 0.00 0.00 66 1010.5
20260504081530 41 184 2.0 7.0 0.00 0.00 0.00 65 1010.5
20260504081007 41 165 3.0 7.0 0.00 0.00 0.00 64 1010.5
20260504080509 41 171 2.0 5.0 0.00 0.00 0.00 66 1010.5
20260504050506 41 159 2.0 5.0 0.00 0.00 0.00 69 1010.6
20260504050021 40 173 3.0 5.0 0.00 0.00 0.00 70 1010.7
20260504045507 39 175 2.0 5.0 0.00 0.00 0.00 73 1010.7
20260504045005 39 178 2.0 4.0 0.00 0.00 0.00 75 1010.7
20260504044524 38 164 2.0 4.0 0.00 0.00 0.00 77 1010.8
20260504044009 38 180 1.0 2.0 0.00 0.00 0.00 77 1010.9
20260504043509 38 190 2.0 2.0 0.00 0.00 0.00 76 1010.9
20260504043028 38 198 1.0 2.0 0.00 0.00 0.00 75 1010.9
20260504042507 38 199 1.0 2.0 0.00 0.00 0.00 74 1010.8
20260504042008 38 201 1.0 2.0 0.00 0.00 0.00 74 1010.8
20260504041533 38 201 1.0 2.0 0.00 0.00 0.00 73 1010.7
20260504041005 38 201 2.0 2.0 0.00 0.00 0.00 73 1010.7
20260504040507 38 199 1.0 2.0 0.00 0.00 0.00 71 1010.8
20260504040021 39 199 1.0 3.0 0.00 0.00 0.00 71 1010.8
20260504035506 39 199 2.0 3.0 0.00 0.00 0.00 71 1010.7
20260504035006 39 200 2.0 3.0 0.00 0.00 0.00 71 1010.7
20260504034523 39 198 1.0 3.0 0.00 0.00 0.00 70 1010.6
20260504034006 39 198 1.0 3.0 0.00 0.00 0.00 70 1010.6
20260504033506 39 199 2.0 3.0 0.00 0.00 0.00 69 1010.7
20260504033027 40 193 2.0 2.0 0.00 0.00 0.00 68 1010.6
20260504032511 40 193 1.0 2.0 0.00 0.00 0.00 67 1010.7
20260504032009 40 193 2.0 2.0 0.00 0.00 0.00 66 1010.6
20260504031528 40 193 1.0 2.0 0.00 0.00 0.00 66 1010.6
20260504031010 40 193 2.0 3.0 0.00 0.00 0.00 67 1010.5
20260504030509 40 192 2.0 3.0 0.00 0.00 0.00 66 1010.4
20260504030014 40 202 1.0 3.0 0.00 0.00 0.00 65 1010.5
20260504025504 40 203 2.0 3.0 0.00 0.00 0.00 65 1010.5
20260504025005 41 204 2.0 3.0 0.00 0.00 0.00 64 1010.4
20260504024519 41 335 0.0 3.0 0.00 0.00 0.00 64 1010.4
20260504024005 41 290 2.0 3.0 0.00 0.00 0.00 64 1010.4
20260504023507 40 230 1.0 3.0 0.00 0.00 0.00 64 1010.5
20260504023021 41 333 1.0 3.0 0.00 0.00 0.00 63 1010.5
20260504022507 41 207 1.0 2.0 0.00 0.00 0.00 63 1010.6
20260504022009 41 197 0.0 2.0 0.00 0.00 0.00 60 1010.6
20260504021524 42 197 1.0 2.0 0.00 0.00 0.00 60 1010.6
20260504021008 42 197 2.0 2.0 0.00 0.00 0.00 61 1010.6
20260504020510 42 200 1.0 2.0 0.00 0.00 0.00 61 1010.5
20260504020035 42 200 1.0 3.0 0.00 0.00 0.00 61 1010.5
20260504015510 43 209 1.0 3.0 0.00 0.00 0.00 60 1010.4
20260504015010 43 242 0.0 2.0 0.00 0.00 0.00 60 1010.5
20260504014520 43 272 0.0 2.0 0.00 0.00 0.00 60 1010.5
20260504014010 44 293 0.0 1.0 0.00 0.00 0.00 58 1010.4
20260504013511 44 295 0.0 4.0 0.00 0.00 0.00 55 1010.2
20260504013024 44 347 0.0 4.0 0.00 0.00 0.00 53 1010.1
20260504012510 45 318 0.0 3.0 0.00 0.00 0.00 50 1010.1
20260504012008 45 5 0.0 3.0 0.00 0.00 0.00 50 1010.1
20260504011525 46 22 0.0 4.0 0.00 0.00 0.00 48 1010.0
20260504011006 46 328 0.0 6.0 0.00 0.00 0.00 46 1010.0
20260504010512 46 360 0.0 6.0 0.00 0.00 0.00 45 1009.9
20260504010011 46 302 2.0 6.0 0.00 0.00 0.00 44 1009.9
20260504005504 46 325 3.0 8.0 0.00 0.00 0.00 42 1009.8
20260504005005 46 342 4.0 8.0 0.00 0.00 0.00 43 1009.8
20260504004516 45 331 3.0 8.0 0.00 0.00 0.00 43 1009.7
20260504004003 45 311 4.0 8.0 0.00 0.00 0.00 44 1009.7
20260504003505 45 350 1.0 3.0 0.00 0.00 0.00 44 1009.7
20260504003018 46 340 1.0 5.0 0.00 0.00 0.00 44 1009.6
20260504002505 46 22 1.0 5.0 0.00 0.00 0.00 46 1009.5
20260504002008 46 360 1.0 4.0 0.00 0.00 0.00 48 1009.4
20260504001530 46 15 2.0 4.0 0.00 0.00 0.00 43 1009.2
20260504001008 47 47 1.0 4.0 0.00 0.00 0.00 43 1009.1
20260504000508 47 335 1.0 4.0 0.00 0.00 0.00 43 1009.2
20260504000025 47 318 0.0 7.0 0.00 0.00 0.00 42 1009.1
20260503235506 47 319 2.0 7.0 0.00 0.00 0.00 37 1009.1
20260503235009 48 311 2.0 6.0 0.00 0.00 0.00 37 1009.0
20260503234516 48 344 2.0 6.0 0.00 0.00 0.00 39 1009.0
20260503234003 48 313 1.0 7.0 0.00 0.00 0.00 38 1008.9
20260503233502 48 315 2.0 7.0 0.00 0.00 0.00 38 1008.9
20260503233019 48 291 3.0 5.0 0.00 0.00 0.00 37 1008.9
20260503232503 48 78 0.0 11.0 0.00 0.00 0.00 36 1008.8
20260503232007 49 333 3.0 11.0 0.00 0.00 0.00 36 1008.8
20260503231522 49 352 3.0 11.0 0.00 0.00 0.00 35 1008.8
20260503231007 49 360 1.0 8.0 0.00 0.00 0.00 35 1008.8
20260503230507 49 331 3.0 15.0 0.00 0.00 0.00 35 1008.7
20260503230036 49 264 8.0 15.0 0.00 0.00 0.00 34 1008.7
20260503225508 49 33 3.0 12.0 0.00 0.00 0.00 35 1008.7
20260503225007 49 306 2.0 10.0 0.00 0.00 0.00 36 1008.7
20260503224527 49 187 4.0 13.0 0.00 0.00 0.00 35 1008.7
20260503224007 49 329 6.0 14.0 0.00 0.00 0.00 34 1008.7
20260503223511 49 292 3.0 14.0 0.00 0.00 0.00 34 1008.7
20260503223016 50 360 7.0 13.0 0.00 0.00 0.00 36 1008.6
20260503222503 50 352 8.0 14.0 0.00 0.00 0.00 35 1008.7
20260503222007 50 352 6.0 15.0 0.00 0.00 0.00 36 1008.6
20260503221515 50 240 4.0 15.0 0.00 0.00 0.00 36 1008.6
20260503221007 50 15 3.0 15.0 0.00 0.00 0.00 36 1008.6
20260503220509 50 302 8.0 15.0 0.00 0.00 0.00 36 1008.7
20260503220022 50 352 6.0 15.0 0.00 0.00 0.00 37 1008.5
20260503215508 50 292 6.0 15.0 0.00 0.00 0.00 37 1008.4
20260503215010 50 34 6.0 13.0 0.00 0.00 0.00 39 1008.5
20260503214536 50 117 5.0 16.0 0.00 0.00 0.00 37 1008.5
20260503214010 50 5 5.0 16.0 0.00 0.00 0.00 38 1008.5
20260503213510 50 352 4.0 15.0 0.00 0.00 0.00 39 1008.4
20260503213028 50 13 8.0 18.0 0.00 0.00 0.00 38 1008.4
20260503212508 50 13 8.0 18.0 0.00 0.00 0.00 38 1008.3
20260503212011 51 317 5.0 16.0 0.00 0.00 0.00 38 1008.3
20260503211516 50 38 3.0 17.0 0.00 0.00 0.00 37 1008.5
20260503211008 50 333 9.0 17.0 0.00 0.00 0.00 37 1008.3
20260503210506 50 342 3.0 14.0 0.00 0.00 0.00 40 1008.3
20260503210020 50 338 8.0 22.0 0.00 0.00 0.00 39 1008.3
20260503205509 49 9 6.0 22.0 0.00 0.00 0.00 38 1008.5
20260503205008 49 305 9.0 23.0 0.00 0.00 0.00 39 1008.6
20260503204525 50 25 9.0 23.0 0.00 0.00 0.00 40 1008.6
20260503204008 49 360 9.0 23.0 0.00 0.00 0.00 41 1008.5
20260503203506 49 317 4.0 23.0 0.00 0.00 0.00 39 1008.5
20260503203033 49 22 7.0 20.0 0.00 0.00 0.00 40 1008.5
20260503202511 49 268 8.0 20.0 0.00 0.00 0.00 41 1008.5
20260503202015 48 360 6.0 18.0 0.00 0.00 0.00 42 1008.3
20260503201526 48 333 8.0 20.0 0.00 0.00 0.00 41 1008.2
20260503201007 48 350 6.0 21.0 0.00 0.00 0.00 41 1008.5
20260503200509 48 30 9.0 21.0 0.00 0.00 0.00 41 1008.4
20260503200017 47 336 4.0 21.0 0.00 0.00 0.00 43 1008.5
20260503195505 47 314 12.0 22.0 0.00 0.00 0.00 41 1008.5
20260503195008 47 327 11.0 22.0 0.00 0.00 0.00 42 1008.6
20260503194525 48 306 10.0 20.0 0.00 0.00 0.00 40 1008.6
20260503194009 49 360 10.0 18.0 0.00 0.00 0.00 39 1008.6
20260503193509 49 5 11.0 17.0 0.00 0.00 0.00 40 1008.7
20260503193040 49 298 8.0 17.0 0.00 0.00 0.00 39 1008.6
20260503192509 49 281 7.0 17.0 0.00 0.00 0.00 40 1008.7
20260503192004 49 352 9.0 15.0 0.00 0.00 0.00 41 1008.7
20260503191524 48 349 7.0 22.0 0.00 0.00 0.00 42 1008.6
20260503191004 47 46 9.0 22.0 0.00 0.00 0.00 41 1008.7
20260503190504 47 5 11.0 19.0 0.00 0.00 0.00 41 1008.6
20260503190023 47 326 8.0 22.0 0.00 0.00 0.00 43 1008.7
20260503185503 47 336 5.0 22.0 0.00 0.00 0.00 42 1008.7
20260503185006 47 328 10.0 21.0 0.00 0.00 0.00 43 1008.7
20260503184515 46 146 11.0 21.0 0.00 0.00 0.00 43 1008.8
20260503184005 46 300 9.0 25.0 0.00 0.00 0.00 44 1008.9
20260503183502 46 344 13.0 25.0 0.00 0.00 0.00 42 1008.8
20260503183005 46 333 6.0 19.0 0.00 0.00 0.00 45 1008.9
20260503182503 46 286 9.0 19.0 0.00 0.00 0.00 44 1008.9
20260503182004 46 338 5.0 16.0 0.00 0.00 0.00 43 1008.9
20260503181508 46 284 7.0 16.0 0.00 0.00 0.00 43 1008.8
20260503181004 46 334 5.0 20.0 0.00 0.00 0.00 43 1008.9
20260503180504 46 317 6.0 20.0 0.00 0.00 0.00 42 1008.9
20260503180014 46 5 5.0 17.0 0.00 0.00 0.00 43 1008.8
20260503175507 46 338 5.0 20.0 0.00 0.00 0.00 43 1008.8
20260503175003 46 352 10.0 20.0 0.00 0.00 0.00 43 1008.7
20260503174514 46 325 7.0 17.0 0.00 0.00 0.00 44 1008.8
20260503174007 46 5 7.0 20.0 0.00 0.00 0.00 45 1008.6
20260503173505 46 313 11.0 20.0 0.00 0.00 0.00 43 1008.8
20260503173015 46 9 9.0 21.0 0.00 0.00 0.00 42 1008.7
20260503172505 46 360 11.0 21.0 0.00 0.00 0.00 42 1008.6
20260503172001 46 321 7.0 16.0 0.00 0.00 0.00 42 1008.5
20260503171508 46 294 10.0 16.0 0.00 0.00 0.00 41 1008.5
20260503171002 46 360 7.0 15.0 0.00 0.00 0.00 44 1008.5
20260503170507 46 15 5.0 19.0 0.00 0.00 0.00 41 1008.6